Retour au catalogue

TIROS 5

ActifMétéoLEO
NORAD 309·PAYLOAD·🇺🇸 United States

Lancé Jun 19, 1962 depuis Cape Canaveral Space Force Station

Loading…

Prochains Passages (prochaines 24 heures)

TLE

FraisSource: Space-Track

Époque: Sep 5, 2026, 08:41 UTC

1 00309U 62025A   26248.36221493  .00000053  00000-0  43252-4 0  9997
2 00309  58.0891 284.9934 0184835  18.5413 342.2234 14.60716765393542

Suivez TIROS 5 en temps réel avec AllMySat

Download on the App Store